This demonstration page uses our WeatherBlox Daily Observations layout. Learn more.

Left ArrowRight Arrow

44.8408, -93.29828

Hourly Observations for September 7, 2020

Temp ( °F °C ) Dew Point ( °F °C ) Humidity (%) Winds ( mph kmh ) Pressure ( in mb ) Visibility ( mi km ) Precip ( " mm )
12:53 am 00:53 Mostly Cloudy 64 17.8 42 5.6 45 45 NW 15 24 29.85 1011 10 16 0.00 0.00
1:53 am 01:53 Mostly Cloudy 63 17.2 42 5.6 47 47 NW 20 31 29.86 1011 10 16 0.00 0.00
2:53 am 02:53 Mostly Cloudy 61 16.1 43 6.1 52 52 NW 12 19 29.88 1012 10 16 0.00 0.00
3:53 am 03:53 Clear 58 14.4 41 5 53 53 NNW 14 22 29.88 1012 10 16 0.00 0.00
4:53 am 04:53 Clear 56 13.3 41 5 57 57 NNW 15 24 29.89 1012 10 16 0.00 0.00
5:53 am 05:53 Partly Cloudy 54 12.2 42 5.6 64 64 NNW 8 13 29.91 1013 10 16 0.00 0.00
6:53 am 06:53 Mostly Cloudy 52 11.1 42 5.6 69 69 NNW 10 17 29.95 1014 10 16 0.00 0.00
7:53 am 07:53 Mostly Cloudy 54 12.2 43 6.1 67 67 NNW 13 20 29.97 1015 10 16 0.00 0.00
8:53 am 08:53 Partly Cloudy 55 12.8 42 5.6 62 62 N 13 20 30.00 1016 10 16 0.00 0.00
9:53 am 09:53 Mostly Cloudy 55 12.8 43 6.1 64 64 N 8 13 30.00 1016 10 16 0.00 0.00
10:53 am 10:53 Cloudy 57 13.9 42 5.6 58 58 NNE 12 19 29.98 1015 10 16 0.00 0.00
11:53 am 11:53 Cloudy 57 13.9 41 5 55 55 NNE 13 20 29.96 1014 10 16 0.00 0.00
12:53 pm 12:53 Cloudy 57 13.9 42 5.6 58 58 NNE 6 9 30.00 1016 10 16 0.00 0.00
1:53 pm 13:53 Cloudy with Light Rain 57 13.9 43 6.1 60 60 N 7 11 29.99 1016 10 16 0.00 0.00
2:53 pm 14:53 Cloudy with Light Rain 53 11.7 43 6.1 69 69 VRB 6 9 30.02 1017 7 11 0.01 0.25
3:53 pm 15:53 Cloudy with Light Rain 52 11.1 47 8.3 83 83 WNW 3 6 30.06 1018 5 8 0.06 1.52
4:53 pm 16:53 Cloudy with Light Rain 51 10.6 48 8.9 89 89 W 6 9 30.08 1019 10 16 0.03 0.76
5:53 pm 17:53 Cloudy with Light Rain 50 10 47 8.3 89 89 NNW 6 9 30.09 1019 10 16 0.00 0.00
6:53 pm 18:53 Cloudy with Light Rain 50 10 49 9.4 96 96 NW 5 7 30.10 1019 6 10 0.03 0.76
7:53 pm 19:53 Cloudy with Light Rain 51 10.6 49 9.4 92 92 N 6 9 30.11 1020 8 13 0.07 1.78
8:53 pm 20:53 Cloudy with Light Rain 50 10 48 8.9 93 93 NNW 6 9 30.14 1021 8 13 0.04 1.02
9:53 pm 21:53 Cloudy with Light Rain 50 10 47 8.3 89 89 Calm 30.15 1021 10 16 0.01 0.25
10:53 pm 22:53 Mostly Cloudy 50 10 48 8.9 93 93 NW 5 7 30.14 1021 10 16 0.00 0.00
11:53 pm 23:53 Mostly Cloudy 50 10 48 8.9 93 93 NNW 7 11 30.14 1021 10 16 0.00 0.00

Powered by AerisWeather